| time (UTC) | temp F | wind direction | speed knots | gust knots | rain 1hr in | rain 24hr in | rain mn in | humidity % | barometer mb |
| 20260901125004 | 69 | 8 | 0.0 | 0.9 | 0.00 | 0.00 | 0.00 | 99 | 1014.7 |
| 20260901123004 | 64 | 327 | 0.9 | 1.7 | 0.00 | 0.00 | 0.00 | 99 | 1014.5 |
| 20260901122004 | 63 | 334 | 0.9 | 1.7 | 0.00 | 0.00 | 0.00 | 99 | 1014.5 |
| 20260901120003 | 62 | 308 | 0.9 | 1.7 | 0.00 | 0.00 | 0.00 | 99 | 1014.3 |
| 20260901115003 | 62 | 336 | 0.9 | 1.7 | 0.00 | 0.00 | 0.00 | 99 | 1014.1 |
| 20260901114004 | 62 | 347 | 0.0 | 0.9 | 0.00 | 0.00 | 0.00 | 99 | 1014.0 |
| 20260901113004 | 62 | 14 | 0.0 | 0.9 | 0.00 | 0.00 | 0.00 | 99 | 1013.7 |
| 20260901112003 | 62 | 354 | 0.0 | 1.7 | 0.00 | 0.00 | 0.00 | 99 | 1013.9 |
| 20260901110003 | 63 | 358 | 0.9 | 1.7 | 0.00 | 0.00 | 0.00 | 99 | 1013.6 |
| 20260901105004 | 63 | 340 | 0.9 | 1.7 | 0.00 | 0.00 | 0.00 | 99 | 1013.6 |
| 20260901104003 | 63 | 324 | 0.9 | 0.9 | 0.00 | 0.00 | 0.00 | 99 | 1013.5 |
| 20260901103004 | 63 | 6 | 0.9 | 0.9 | 0.00 | 0.00 | 0.00 | 99 | 1013.4 |
| 20260901101004 | 64 | 41 | 0.9 | 0.9 | 0.00 | 0.00 | 0.00 | 99 | 1013.4 |
| 20260901100004 | 64 | 35 | 0.9 | 0.9 | 0.00 | 0.00 | 0.00 | 99 | 1013.5 |
| 20260901095004 | 65 | 23 | 0.9 | 1.7 | 0.00 | 0.00 | 0.00 | 99 | 1013.4 |
| 20260901094004 | 65 | 16 | 0.0 | 0.9 | 0.00 | 0.00 | 0.00 | 99 | 1013.6 |
| 20260901093004 | 65 | 29 | 0.0 | 0.9 | 0.00 | 0.06 | 0.00 | 99 | 1013.4 |
| 20260901091004 | 65 | 37 | 0.0 | 0.0 | 0.00 | 0.06 | 0.00 | 99 | 1013.4 |
| 20260901090004 | 65 | 55 | 0.0 | 0.9 | 0.00 | 0.06 | 0.00 | 99 | 1013.4 |
| 20260901085004 | 66 | 349 | 0.0 | 0.9 | 0.00 | 0.06 | 0.00 | 99 | 1013.4 |
| 20260901084004 | 65 | 348 | 0.0 | 0.9 | 0.00 | 0.11 | 0.00 | 99 | 1013.2 |
| 20260901083003 | 65 | 29 | 0.0 | 0.9 | 0.00 | 0.19 | 0.00 | 99 | 1013.3 |
| 20260901082004 | 65 | 33 | 0.0 | 0.9 | 0.00 | 0.19 | 0.00 | 99 | 1013.3 |
| 20260901080003 | 66 | 336 | 0.0 | 0.9 | 0.00 | 0.19 | 0.00 | 99 | 1013.3 |
| 20260901075003 | 66 | 44 | 0.9 | 1.7 | 0.00 | 0.19 | 0.00 | 99 | 1013.3 |
| 20260901074004 | 66 | 18 | 0.9 | 0.9 | 0.00 | 0.19 | 0.00 | 99 | 1013.3 |
| 20260901073004 | 66 | 19 | 0.0 | 0.9 | 0.00 | 0.19 | 0.00 | 99 | 1013.2 |
| 20260901071004 | 66 | 2 | 0.0 | 0.9 | 0.00 | 0.19 | 0.00 | 99 | 1013.0 |
| 20260901070003 | 67 | 16 | 0.0 | 0.9 | 0.00 | 0.19 | 0.00 | 99 | 1012.8 |
| 20260901065004 | 67 | 14 | 0.0 | 0.9 | 0.00 | 0.19 | 0.00 | 99 | 1012.9 |
| 20260901064004 | 67 | 336 | 0.0 | 0.9 | 0.00 | 0.19 | 0.00 | 99 | 1013.0 |
| 20260901062005 | 67 | 11 | 0.0 | 0.9 | 0.00 | 0.19 | 0.00 | 99 | 1013.1 |
| 20260901061004 | 67 | 29 | 0.9 | 0.9 | 0.00 | 0.19 | 0.00 | 99 | 1013.1 |
| 20260901060004 | 68 | 13 | 0.0 | 0.0 | 0.00 | 0.19 | 0.00 | 99 | 1013.0 |
| 20260901055003 | 68 | 305 | 0.0 | 0.9 | 0.00 | 0.19 | 0.00 | 99 | 1013.0 |
| 20260901054004 | 68 | 3 | 0.0 | 0.0 | 0.00 | 0.19 | 0.00 | 99 | 1012.9 |
| 20260901053004 | 68 | 322 | 0.0 | 0.0 | 0.00 | 0.19 | 0.00 | 99 | 1013.0 |
| 20260901052004 | 68 | 345 | 0.0 | 0.9 | 0.00 | 0.19 | 0.00 | 99 | 1013.1 |
| 20260901050004 | 69 | 6 | 0.0 | 0.9 | 0.00 | 0.19 | 0.00 | 99 | 1013.1 |
| 20260901045004 | 69 | 13 | 0.9 | 0.9 | 0.00 | 0.20 | 0.19 | 99 | 1012.9 |
| 20260901044004 | 69 | 343 | 0.0 | 0.9 | 0.00 | 0.20 | 0.19 | 99 | 1013.0 |
| 20260901041004 | 70 | 48 | 0.9 | 0.9 | 0.00 | 0.20 | 0.19 | 99 | 1012.9 |
| 20260901040004 | 70 | 341 | 0.0 | 0.9 | 0.00 | 0.20 | 0.19 | 99 | 1012.8 |
| 20260901034004 | 71 | 28 | 0.0 | 0.9 | 0.00 | 0.20 | 0.19 | 99 | 1012.7 |
| 20260901033004 | 71 | 1 | 0.0 | 0.9 | 0.00 | 0.20 | 0.19 | 99 | 1012.7 |
| 20260901030004 | 72 | 23 | 0.0 | 0.9 | 0.00 | 0.20 | 0.19 | 99 | 1013.0 |
| 20260901025004 | 72 | 25 | 0.0 | 0.9 | 0.00 | 0.20 | 0.19 | 99 | 1013.0 |
| 20260901023003 | 73 | 325 | 0.0 | 0.0 | 0.00 | 0.20 | 0.19 | 99 | 1013.1 |
| 20260901022004 | 73 | 50 | 0.0 | 0.9 | 0.00 | 0.20 | 0.19 | 99 | 1013.1 |
| 20260901021004 | 73 | 33 | 0.0 | 0.0 | 0.00 | 0.20 | 0.19 | 99 | 1013.0 |
| 20260901020003 | 73 | 309 | 0.0 | 0.0 | 0.00 | 0.20 | 0.19 | 99 | 1012.9 |
| 20260901015004 | 73 | 309 | 0.0 | 0.0 | 0.00 | 0.20 | 0.19 | 99 | 1013.0 |
| 20260901014003 | 73 | 309 | 0.0 | 0.0 | 0.00 | 0.20 | 0.19 | 99 | 1013.0 |
| 20260901013004 | 73 | 333 | 0.0 | 0.0 | 0.00 | 0.20 | 0.19 | 99 | 1012.8 |
| 20260901012004 | 73 | 333 | 0.0 | 0.0 | 0.00 | 0.20 | 0.19 | 99 | 1012.5 |
| 20260901011004 | 74 | 333 | 0.0 | 0.0 | 0.00 | 0.20 | 0.19 | 99 | 1012.3 |
| 20260901010004 | 74 | 322 | 0.0 | 0.0 | 0.00 | 0.20 | 0.19 | 99 | 1012.1 |
| 20260901005003 | 74 | 347 | 0.0 | 0.9 | 0.00 | 0.20 | 0.19 | 99 | 1011.9 |
| 20260901004004 | 75 | 17 | 0.0 | 0.9 | 0.00 | 0.20 | 0.19 | 99 | 1011.9 |
| 20260901002004 | 76 | 37 | 0.0 | 0.9 | 0.00 | 0.20 | 0.19 | 98 | 1011.7 |
| 20260901001004 | 77 | 25 | 0.0 | 0.0 | 0.00 | 0.20 | 0.19 | 96 | 1011.8 |
| 20260901000004 | 78 | 25 | 0.0 | 0.0 | 0.00 | 0.20 | 0.19 | 95 | 1011.8 |
| 20260831235004 | 79 | 333 | 0.0 | 0.0 | 0.00 | 0.20 | 0.19 | 93 | 1011.8 |
| 20260831234004 | 80 | 333 | 0.0 | 0.9 | 0.00 | 0.20 | 0.19 | 92 | 1011.7 |
| 20260831233004 | 81 | 289 | 0.0 | 1.7 | 0.00 | 0.20 | 0.19 | 88 | 1011.8 |
| 20260831232004 | 81 | 325 | 0.9 | 1.7 | 0.00 | 0.20 | 0.19 | 88 | 1011.6 |
| 20260831231004 | 81 | 8 | 0.9 | 1.7 | 0.00 | 0.20 | 0.19 | 89 | 1011.7 |
| 20260831230004 | 81 | 330 | 0.9 | 1.7 | 0.00 | 0.20 | 0.19 | 88 | 1011.5 |
| 20260831225004 | 82 | 0 | 0.9 | 1.7 | 0.00 | 0.20 | 0.19 | 86 | 1011.5 |
| 20260831224004 | 82 | 43 | 0.0 | 2.6 | 0.00 | 0.20 | 0.19 | 84 | 1011.4 |
| 20260831223004 | 83 | 345 | 0.9 | 2.6 | 0.00 | 0.20 | 0.19 | 84 | 1011.3 |
| 20260831221004 | 81 | 282 | 0.9 | 1.7 | 0.00 | 0.20 | 0.19 | 88 | 1011.3 |
| 20260831220004 | 80 | 327 | 1.7 | 2.6 | 0.00 | 0.20 | 0.19 | 89 | 1011.5 |
| 20260831215004 | 80 | 338 | 0.9 | 2.6 | 0.00 | 0.20 | 0.19 | 89 | 1011.5 |
| 20260831214004 | 80 | 280 | 1.7 | 2.6 | 0.00 | 0.20 | 0.19 | 88 | 1011.4 |
| 20260831213004 | 80 | 317 | 1.7 | 2.6 | 0.00 | 0.20 | 0.19 | 89 | 1011.1 |
| 20260831212004 | 80 | 0 | 0.9 | 2.6 | 0.00 | 0.20 | 0.19 | 89 | 1011.1 |
| 20260831211004 | 80 | 290 | 0.0 | 2.6 | 0.00 | 0.20 | 0.19 | 88 | 1011.1 |
| 20260831210004 | 81 | 0 | 1.7 | 2.6 | 0.00 | 0.20 | 0.19 | 87 | 1011.0 |
| 20260831205003 | 80 | 297 | 0.9 | 5.2 | 0.00 | 0.20 | 0.19 | 88 | 1011.0 |
| 20260831202003 | 80 | 315 | 1.7 | 4.3 | 0.00 | 0.20 | 0.19 | 87 | 1010.9 |
| 20260831201004 | 80 | 291 | 1.7 | 2.6 | 0.00 | 0.20 | 0.19 | 86 | 1011.0 |
| 20260831195003 | 80 | 283 | 1.7 | 4.3 | 0.00 | 0.20 | 0.19 | 86 | 1011.1 |
| 20260831194003 | 80 | 296 | 0.9 | 2.6 | 0.00 | 0.20 | 0.19 | 86 | 1011.2 |
| 20260831192003 | 79 | 318 | 1.7 | 4.3 | 0.00 | 0.20 | 0.19 | 86 | 1011.2 |
| 20260831191004 | 79 | 281 | 0.9 | 5.2 | 0.00 | 0.20 | 0.19 | 87 | 1011.3 |
| 20260831190004 | 80 | 292 | 1.7 | 5.2 | 0.00 | 0.20 | 0.19 | 86 | 1011.1 |
| 20260831185004 | 80 | 277 | 1.7 | 6.1 | 0.00 | 0.20 | 0.19 | 85 | 1011.4 |
| 20260831184004 | 81 | 296 | 0.9 | 5.2 | 0.00 | 0.20 | 0.19 | 84 | 1011.5 |
| 20260831183004 | 79 | 267 | 3.5 | 5.2 | 0.00 | 0.20 | 0.19 | 86 | 1011.8 |
| 20260831182004 | 80 | 301 | 1.7 | 7.0 | 0.00 | 0.20 | 0.19 | 86 | 1011.7 |
| 20260831181004 | 79 | 285 | 2.6 | 7.8 | 0.00 | 0.20 | 0.19 | 88 | 1011.8 |
| 20260831174004 | 79 | 326 | 1.7 | 5.2 | 0.00 | 0.20 | 0.19 | 87 | 1011.5 |
| 20260831173004 | 79 | 158 | 0.9 | 5.2 | 0.00 | 0.20 | 0.19 | 86 | 1011.7 |
| 20260831172004 | 79 | 356 | 0.9 | 5.2 | 0.00 | 0.20 | 0.19 | 87 | 1011.8 |
| 20260831171004 | 78 | 324 | 1.7 | 4.3 | 0.00 | 0.20 | 0.19 | 89 | 1011.9 |
| 20260831170004 | 76 | 319 | 2.6 | 4.3 | 0.00 | 0.20 | 0.19 | 91 | 1011.9 |
| 20260831165004 | 77 | 289 | 2.6 | 5.2 | 0.00 | 0.20 | 0.19 | 91 | 1011.8 |
| 20260831164003 | 76 | 301 | 1.7 | 2.6 | 0.00 | 0.20 | 0.19 | 91 | 1011.8 |
| 20260831163003 | 76 | 287 | 1.7 | 2.6 | 0.00 | 0.20 | 0.19 | 93 | 1011.9 |
| 20260831162004 | 75 | 46 | 0.9 | 1.7 | 0.00 | 0.20 | 0.19 | 94 | 1012.0 |
| 20260831161004 | 75 | 37 | 0.9 | 2.6 | 0.00 | 0.20 | 0.19 | 95 | 1011.8 |
| 20260831155003 | 73 | 354 | 0.9 | 2.6 | 0.00 | 0.20 | 0.19 | 98 | 1011.9 |
| 20260831153004 | 72 | 193 | 0.0 | 2.6 | 0.00 | 0.20 | 0.19 | 99 | 1011.9 |
| 20260831152003 | 71 | 306 | 0.9 | 2.6 | 0.00 | 0.20 | 0.19 | 99 | 1012.1 |
| 20260831151004 | 71 | 58 | 0.9 | 5.2 | 0.00 | 0.20 | 0.19 | 99 | 1012.1 |
| 20260831150004 | 70 | 354 | 0.9 | 4.3 | 0.00 | 0.20 | 0.19 | 99 | 1012.0 |
| 20260831145004 | 71 | 202 | 0.9 | 6.1 | 0.00 | 0.20 | 0.19 | 99 | 1012.2 |
| 20260831144004 | 70 | 313 | 0.9 | 4.3 | 0.00 | 0.20 | 0.19 | 99 | 1012.3 |
| 20260831143004 | 70 | 75 | 1.7 | 4.3 | 0.00 | 0.20 | 0.19 | 99 | 1012.3 |
| 20260831142004 | 69 | 60 | 1.7 | 2.6 | 0.00 | 0.20 | 0.19 | 99 | 1012.2 |
| 20260831141003 | 69 | 75 | 0.9 | 4.3 | 0.00 | 0.20 | 0.19 | 99 | 1012.4 |
| 20260831135004 | 69 | 15 | 0.9 | 2.6 | 0.00 | 0.20 | 0.19 | 99 | 1012.7 |
| 20260831134004 | 69 | 133 | 1.7 | 5.2 | 0.00 | 0.20 | 0.19 | 99 | 1012.8 |
| 20260831133004 | 69 | 321 | 0.9 | 4.3 | 0.00 | 0.20 | 0.19 | 99 | 1012.5 |
| 20260831132003 | 69 | 77 | 0.9 | 4.3 | 0.00 | 0.20 | 0.19 | 99 | 1012.5 |
| 20260831131004 | 69 | 36 | 1.7 | 6.1 | 0.00 | 0.20 | 0.19 | 99 | 1012.5 |
| 20260831130003 | 68 | 12 | 1.7 | 4.3 | 0.00 | 0.20 | 0.19 | 99 | 1012.7 |